ROMMA est une association bénévole à but non lucratif. Votre soutien est indispensable : ADHERER à ROMMA ou FAIRE un DON

Le Versoud - (38, Isère)

Vallée du Grésivaudan (220 m)   Longitude: 05° 51' 44" E   Latitude: 45° 13' 06" N Station partenaire n°6
 

Détail journalier du     <<     >>

Température Precipitation Humidité Pression Vent Dir Rafale Dir. rafale Ensol.
Heure (°C) (mm) (%) (hPa) (km/h) (km/h) (min)
01:00 9.0089102602E0
02:00 8.9090102506ESE0
03:00 8.80.892102502SE0
04:00 8.7093102403SE0
05:00 8.7093102402SE0
06:00 8.6094102400---0
07:00 8.6094102402SE0
08:00 8.7095102400---0
09:00 9.2094102400---0
10:00 10.40901024010O0
11:00 11.3087102300---0
12:00 11.4086102302ONO0
13:00 12.1085102305NO0
14:00 13.5081102205ONO0
15:00 15.20731022011OSO0
16:00 18.10511022013SO15
17:00 18.105110213OSO19OSO50
18:00 16.905710211OSO16OSO15
19:00 13.90.26910232SE23S0
20:00 11.7082102300---0
21:00 10.2085102302S0
22:00 9.50881024010ENE0
23:00 12.706210251SSE13NO0
minuit 10.2078102502NO0

Graphique du 10-03-2019

 

Serveur OMMA